"Pseudo-MPEC" for ST24E07

Created 2024 May 21 19:22:06 UT using Find_Orb

Click here for an explanation of pseudo-MPECs

 
 Astrometry: 
     ST24E07* C2024 05 03!iB;S]ARoS'ysB-p:opNnAH]U,C^Dy'@nZ$6fsCGAstrometryMiU68
     ST24E07  C2024 05 03Zf^)]2wX8;H`pkx:jredacted;%Z99^)Z2L[9B%s/c#FuT$gTs5nU68
     ST24E07  C2024 05 03i[l)%KeGyhsZ'p9UY2%Qf]clicksuV.iFC6)IaGg$5%lb:N2S)k0U68
     ST24E07  C2024 05 03;p;[Shere4Vdw0@6miQ;1Xs7?bQmO_P@IEkd'xy7bvkLp[@:35KkU68
     ST24E07 KB2024 05 04.K(Mg4usK]vK(`,9wiiio`$57$%\2P?:qSi4nKV?SK3VIVElL+p;Q06
     ST24E07 KB2024 05 04_b@dx,n=fJiT*^Y`#f#)y3,VXx\Hw#0=Bfor/$6$VQnd5,CvccSlQ06
     ST24E07 KB2024 05 04cfxsxP/y,tc$pL(,S`=^.'s:%I$hexplanationJ+B#XASg7,t1pQ06

Station data:
(Q06) Tarui Observatory, Tarui  (N35.394791 E136.495470)  Japan.
(U68) JPL SynTrack Robotic Telescope, Auberry  (N37.070387 W119.412990)
   US/California.  Observers N. Saini, C. Zhai, R. Trahan, M. Zhan, M. Shao.
   0.28-m f/2.2 Schmidt + CCD.

Orbital elements:  ST24E07
   Perihelion 2024 Mar 7.82690 +/- 1.97 TT = 19:50:44 (JD 2460377.32690)
Epoch 2024 May  4.0 TT = JDT 2460434.5   Earth MOID: 0.0243   Ve: 0.0342
M  32.00816935 +/- 5.3              (J2000 ecliptic)             AutoNEOCP
n   0.55984670 +/- 0.0749           Peri.  251.38006 +/- 0.9
a   1.45799700 +/- 0.13             Node   221.91445 +/- 0.06
e   0.6492269 +/- 0.0398            Incl.   21.74272 +/- 1.6
P   1.76/643.02d           H 24.31  G  0.15   U 11.0
q 0.51142604 +/- 0.013    Q 2.40456796 +/- 0.272
From 7 observations 2024 May 3-4 (26.5 hr); mean residual 0".69
Residuals in arcseconds: 
240503 U68  .24+  .13+    240503 U68  .25-  .06+    240504 Q06  .28-  1.2-    
240503 U68  .51-  1.1+    240504 Q06  .39+  1.3+    
240503 U68  .51+  1.3-    240504 Q06  .10-  .05-    

Ephemerides (geocentric):
Date (UTC) HH   RA             Dec           delta  r     elong  mag " sig PA
---- --------  ------------   ------------  ------ ------ -----  --- --------
2024 05 21 19  14 07 00.623   +07 31 52.50  .30782 1.2678 141.5 23.6  130  10
2024 05 21 20  14 07 02.334   +07 32 04.99  .30841 1.2682 141.5 23.6  131  10
2024 05 21 21  14 07 04.043   +07 32 17.37  .30900 1.2686 141.5 23.6  131  10
2024 05 21 22  14 07 05.750   +07 32 29.63  .30959 1.2691 141.4 23.6  131  10
2024 05 21 23  14 07 07.455   +07 32 41.76  .31018 1.2695 141.4 23.6  132  10
2024 05 22 00  14 07 09.158   +07 32 53.78  .31077 1.2699 141.4 23.6  132  10
2024 05 22 01  14 07 10.860   +07 33 05.67  .31136 1.2704 141.3 23.6  132  10
2024 05 22 02  14 07 12.560   +07 33 17.45  .31195 1.2708 141.3 23.6  132  10
2024 05 22 03  14 07 14.259   +07 33 29.10  .31254 1.2712 141.3 23.6  133  10
2024 05 22 04  14 07 15.955   +07 33 40.64  .31313 1.2717 141.2 23.6  133   9
2024 05 22 05  14 07 17.651   +07 33 52.06  .31372 1.2721 141.2 23.6  133   9
2024 05 22 06  14 07 19.344   +07 34 03.37  .31431 1.2725 141.2 23.6  134   9
2024 05 22 07  14 07 21.036   +07 34 14.56  .31490 1.2730 141.2 23.6  134   9
2024 05 22 08  14 07 22.726   +07 34 25.63  .31549 1.2734 141.1 23.6  134   9
2024 05 22 09  14 07 24.415   +07 34 36.59  .31608 1.2738 141.1 23.6  135   9
2024 05 22 10  14 07 26.102   +07 34 47.43  .31667 1.2743 141.1 23.6  135   9
2024 05 22 11  14 07 27.787   +07 34 58.16  .31726 1.2747 141.0 23.6  135   9
2024 05 22 12  14 07 29.471   +07 35 08.77  .31785 1.2751 141.0 23.6  136   9
2024 05 22 13  14 07 31.154   +07 35 19.28  .31844 1.2756 141.0 23.6  136   8
2024 05 22 14  14 07 32.834   +07 35 29.67  .31903 1.2760 140.9 23.7  136   8
2024 05 22 15  14 07 34.514   +07 35 39.94  .31962 1.2764 140.9 23.7  137   8
2024 05 22 16  14 07 36.192   +07 35 50.11  .32021 1.2769 140.9 23.7  137   8
2024 05 22 17  14 07 37.868   +07 36 00.17  .32081 1.2773 140.8 23.7  137   8
2024 05 22 18  14 07 39.544   +07 36 10.11  .32140 1.2777 140.8 23.7  137   8
2024 05 22 19  14 07 41.217   +07 36 19.95  .32199 1.2782 140.8 23.7  138   8
2024 05 22 20  14 07 42.889   +07 36 29.67  .32258 1.2786 140.7 23.7  138   8
2024 05 22 21  14 07 44.560   +07 36 39.29  .32317 1.2790 140.7 23.7  138   8
2024 05 22 22  14 07 46.230   +07 36 48.80  .32376 1.2795 140.7 23.7  139   8
2024 05 22 23  14 07 47.898   +07 36 58.20  .32436 1.2799 140.7 23.7  139   7
2024 05 23 00  14 07 49.564   +07 37 07.50  .32495 1.2803 140.6 23.7  139   7
2024 05 23 01  14 07 51.230   +07 37 16.68  .32554 1.2807 140.6 23.7  140   7
2024 05 23 02  14 07 52.894   +07 37 25.76  .32613 1.2812 140.6 23.7  140   7
2024 05 23 03  14 07 54.557   +07 37 34.74  .32672 1.2816 140.5 23.7  140   7
2024 05 23 04  14 07 56.218   +07 37 43.61  .32732 1.2820 140.5 23.7  141   7
2024 05 23 05  14 07 57.878   +07 37 52.37  .32791 1.2825 140.5 23.7  141   7
2024 05 23 06  14 07 59.537   +07 38 01.03  .32850 1.2829 140.4 23.7  141   7
2024 05 23 07  14 08 01.195   +07 38 09.59  .32910 1.2833 140.4 23.7  142   7
2024 05 23 08  14 08 02.851   +07 38 18.04  .32969 1.2838 140.4 23.7  142   6
2024 05 23 09  14 08 04.507   +07 38 26.39  .33028 1.2842 140.3 23.8  142   6
2024 05 23 10  14 08 06.161   +07 38 34.64  .33088 1.2846 140.3 23.8  143   6
2024 05 23 11  14 08 07.813   +07 38 42.78  .33147 1.2851 140.3 23.8  143   6
2024 05 23 12  14 08 09.465   +07 38 50.83  .33206 1.2855 140.2 23.8  143   6
2024 05 23 13  14 08 11.115   +07 38 58.77  .33266 1.2859 140.2 23.8  144   6
2024 05 23 14  14 08 12.765   +07 39 06.61  .33325 1.2863 140.2 23.8  144   6
2024 05 23 15  14 08 14.413   +07 39 14.35  .33384 1.2868 140.2 23.8  144   6
2024 05 23 16  14 08 16.060   +07 39 21.99  .33444 1.2872 140.1 23.8  145   6
2024 05 23 17  14 08 17.706   +07 39 29.53  .33503 1.2876 140.1 23.8  145   6
2024 05 23 18  14 08 19.351   +07 39 36.98  .33563 1.2881 140.1 23.8  145   5